Starlink 35859

operational
NORAD ID: 67185 Int'l Des: 2025-303 Owner: SPXS Country: US Constellation: starlink
LEOCIRCULAR

关于 Starlink 35859

正在加载描述...

实时位置

正在加载3D地球...

即将过境

高度历史

Altitude vs Time

uPlot chart will show altitude changes over time

两行轨道根数

1 67185C 25303Y 25352.76715278 .00694770 00000+0 10173-2 0 3529
2 67185 43.0051 61.7856 0007416 283.6993 263.3390 16.03362048 13
Epoch: Dec 18, 2025 • Age: 65 hours

当前状态

高度 259.0 km
速度 7.75 km/s
星下点 3.36°N, 113.54°W
发射日期 Dec 17, 2025
运行时间 3 days
类型 internet

技术详情

分类 Payload
质量 575.00 kg
干质量 530.00 kg
总质量 575.00 kg
长度 0.30 m
直径 4.10 m
跨度 29.00 m
形状 Box + pan
制造商 SPXS
平台类型 Starlink V2MO
阶段状态 In Orbit
所有者/国家 SPXS/US

大型星座

Loading constellations...